Folgueroles (Osona)





Hora UTC 18:30
Temperatura 11.4 ºC
Humitat 82.0 %
Pressió 1020.6 hPa
Pluja 0.0 mm
Velocitat vent 0.0 km/h
Direcció vent SW

Dades diàries 2023-03-20



Hora UTC (hivern +1h; estiu +2h)
Temperatura (ºC) Humitat (%) Pressió (hPa) Velocitat vent (km/h) Precipitació (mm)
Hora UTC Aire Humitat Pressió Vel. Dir. Vel. Max Dir. Intent. màx 5 min.
00:05 7.3 95.0 1023.6 0.0 SE 0.0 0.0
00:10 7.3 95.0 1023.5 0.0 SE 0.0 0.0
00:15 7.4 95.0 1023.6 0.0 SE 0.0 0.0
00:20 7.4 95.0 1023.5 0.0 SE 0.0 0.0
00:25 7.6 95.0 1023.5 0.0 SE 0.0 0.0
00:30 7.6 95.0 1023.4 0.0 SE 0.0 0.0
00:35 7.6 95.0 1023.4 0.0 SE 0.0 0.0
00:40 7.7 95.0 1023.4 0.0 SE 0.0 0.0
00:45 7.8 95.0 1023.4 0.0 SE 1.6 0.0
00:50 7.8 95.0 1023.3 0.0 SE 1.6 0.0
00:55 7.8 95.0 1023.2 0.0 SE 0.0 0.0
01:00 7.8 95.0 1023.1 0.0 SE 0.0 0.0
01:05 7.8 95.0 1023.1 0.0 SE 0.0 0.0
01:10 7.8 95.0 1023.2 0.0 SE 0.0 0.0
01:15 7.8 95.0 1023.3 0.0 SE 0.0 0.0
01:20 7.8 95.0 1023.2 0.0 SW 0.0 0.0
01:25 7.8 95.0 1023.1 0.0 SW 0.0 0.0
01:30 7.8 95.0 1023.1 0.0 SW 0.0 0.0
01:35 7.7 95.0 1023.1 0.0 SW 0.0 0.0
01:40 7.8 95.0 1023.0 0.0 SW 0.0 0.0
01:45 7.7 95.0 1022.9 0.0 SW 0.0 0.0
01:50 7.7 95.0 1022.8 0.0 SW 0.0 0.0
01:55 7.7 95.0 1022.8 0.0 SW 0.0 0.0
02:00 7.6 95.0 1022.7 0.0 SW 0.0 0.0
02:05 7.6 95.0 1022.7 0.0 SW 0.0 0.0
02:10 7.6 95.0 1022.7 0.0 SW 0.0 0.0
02:15 7.6 95.0 1022.6 0.0 SW 0.0 0.0
02:20 7.6 95.0 1022.6 0.0 SW 0.0 0.0
02:25 7.4 95.0 1022.6 1.6 SW 3.2 0.0
02:30 7.3 95.0 1022.5 3.2 SW 4.8 0.0
02:35 7.3 95.0 1022.4 0.0 SW 4.8 0.0
02:40 7.3 95.0 1022.4 0.0 SW 3.2 0.0
02:45 7.2 95.0 1022.2 0.0 SW 3.2 0.0
02:50 7.2 95.0 1022.2 0.0 SW 0.0 0.0
02:55 7.2 95.0 1022.2 0.0 SW 0.0 0.0
03:00 7.2 95.0 1022.2 0.0 SW 0.0 0.0
03:05 7.1 95.0 1022.2 0.0 SW 0.0 0.0
03:10 7.0 95.0 1022.0 0.0 SW 0.0 0.0
03:15 7.0 95.0 1022.0 0.0 SW 0.0 0.0
03:20 7.1 95.0 1022.1 0.0 SW 0.0 0.0
03:25 7.1 95.0 1022.0 0.0 SW 0.0 0.0
03:30 7.1 95.0 1022.0 0.0 SW 0.0 0.0
03:35 7.0 95.0 1022.0 0.0 SW 0.0 0.0
03:40 7.0 95.0 1022.1 0.0 SW 0.0 0.0
03:45 6.9 95.0 1022.0 0.0 SW 0.0 0.0
03:50 6.8 95.0 1022.0 0.0 SW 0.0 0.0
03:55 6.7 95.0 1022.0 0.0 SW 0.0 0.0
04:00 6.7 95.0 1022.1 0.0 SW 0.0 0.0
04:05 6.7 95.0 1022.0 0.0 SW 0.0 0.0
04:10 6.6 95.0 1022.0 0.0 SW 0.0 0.0
04:15 6.7 95.0 1022.0 0.0 SW 0.0 0.0
04:20 6.6 95.0 1022.1 0.0 SW 0.0 0.0
04:25 6.6 95.0 1022.0 0.0 SW 0.0 0.0
04:30 6.4 95.0 1022.0 0.0 SW 0.0 0.0
04:35 6.4 95.0 1022.0 0.0 SW 0.0 0.0
04:40 6.3 95.0 1021.9 0.0 SW 0.0 0.0
04:45 6.3 95.0 1021.8 0.0 SW 0.0 0.0
04:50 6.3 96.0 1021.8 0.0 SW 0.0 0.0
04:55 6.3 96.0 1021.8 0.0 SW 0.0 0.0
05:00 6.5 96.0 1021.9 1.6 SW 4.8 0.0
05:05 6.6 95.0 1021.9 0.0 SW 4.8 0.0
05:10 6.6 95.0 1021.9 0.0 SW 3.2 0.0
05:15 6.6 95.0 1021.8 0.0 SW 0.0 0.0
05:20 6.6 95.0 1021.8 0.0 SW 0.0 0.0
05:25 6.6 95.0 1021.8 0.0 SW 1.6 0.0
05:30 6.4 95.0 1021.8 1.6 SW 3.2 0.0
05:35 6.3 95.0 1021.7 0.0 SSE 8.0 0.0
05:40 6.3 95.0 1021.8 0.0 SSE 1.6 0.0
05:45 6.3 95.0 1021.7 0.0 SSE 0.0 0.0
05:50 6.3 95.0 1021.7 0.0 SSE 0.0 0.0
05:55 6.3 95.0 1021.7 0.0 SSE 1.6 0.0
06:00 6.3 95.0 1021.7 3.2 S 3.2 0.0
06:05 6.3 95.0 1021.7 0.0 S 3.2 0.0
06:10 6.3 96.0 1021.8 0.0 SSW 3.2 0.0
06:15 6.3 96.0 1021.9 0.0 SSW 3.2 0.0
06:20 6.3 95.0 1021.9 0.0 WSW 4.8 0.0
06:25 6.3 95.0 1021.9 1.6 WSW 4.8 0.0
06:30 6.2 95.0 1022.1 3.2 WSW 6.4 0.0
06:35 6.2 95.0 1022.2 0.0 WSW 6.4 0.0
06:40 6.1 95.0 1022.2 1.6 WSW 4.8 0.0
06:45 6.1 95.0 1022.2 3.2 WSW 4.8 0.0
06:50 6.1 95.0 1022.3 1.6 W 4.8 0.0
06:55 6.1 95.0 1022.3 0.0 W 4.8 0.0
07:00 6.1 95.0 1022.4 0.0 W 3.2 0.0
07:05 6.1 96.0 1022.4 0.0 W 0.0 0.0
07:10 6.2 96.0 1022.4 0.0 W 0.0 0.0
07:15 6.2 96.0 1022.5 0.0 W 0.0 0.0
07:20 6.3 96.0 1022.5 0.0 W 0.0 0.0
07:25 6.4 96.0 1022.5 0.0 W 0.0 0.0
07:30 6.3 96.0 1022.4 0.0 W 0.0 0.0
07:35 6.4 95.0 1022.4 0.0 W 0.0 0.0
07:40 6.4 95.0 1022.5 0.0 W 0.0 0.0
07:45 6.4 95.0 1022.5 0.0 W 0.0 0.0
07:50 6.4 96.0 1022.5 0.0 W 0.0 0.0
07:55 6.3 95.0 1022.7 0.0 W 0.0 0.0
08:00 6.4 96.0 1022.5 0.0 W 0.0 0.0
08:05 6.5 96.0 1022.5 0.0 W 0.0 0.0
08:10 6.6 96.0 1022.5 0.0 W 0.0 0.0
08:15 6.6 96.0 1022.7 0.0 W 0.0 0.0
08:20 6.6 96.0 1022.6 0.0 W 0.0 0.0
08:25 6.6 96.0 1022.8 0.0 W 0.0 0.0
08:30 6.7 96.0 1022.7 0.0 W 0.0 0.0
08:35 6.6 96.0 1022.8 0.0 W 0.0 0.0
08:40 6.7 96.0 1022.6 0.0 W 0.0 0.0
08:45 6.8 96.0 1022.6 0.0 W 0.0 0.0
08:50 7.0 96.0 1022.6 0.0 N 0.0 0.0
08:55 7.1 96.0 1022.5 0.0 N 0.0 0.0
09:00 7.3 96.0 1022.4 1.6 N 4.8 0.0
09:05 7.4 96.0 1022.6 0.0 N 4.8 0.0
09:10 7.4 96.0 1022.4 4.8 N 6.4 0.0
09:15 7.4 96.0 1022.5 0.0 N 6.4 0.0
09:20 7.4 96.0 1022.5 1.6 N 6.4 0.0
09:25 7.4 96.0 1022.5 1.6 N 6.4 0.0
09:30 7.6 96.0 1022.6 0.0 N 6.4 0.0
09:35 7.7 96.0 1022.5 4.8 NNE 4.8 0.0
09:40 7.7 96.0 1022.5 1.6 N 6.4 0.0
09:45 7.7 96.0 1022.4 0.0 NW 6.4 0.0
09:50 7.8 96.0 1022.5 1.6 N 6.4 0.0
09:55 7.9 96.0 1022.5 1.6 N 6.4 0.0
10:00 8.2 96.0 1022.5 1.6 N 6.4 0.0
10:05 8.3 96.0 1022.5 3.2 N 3.2 0.0
10:10 8.3 96.0 1022.5 0.0 NNW 6.4 0.0
10:15 8.4 96.0 1022.4 0.0 NNW 6.4 0.0
10:20 8.5 96.0 1022.5 0.0 N 3.2 0.0
10:25 8.6 96.0 1022.5 0.0 WNW 3.2 0.0
10:30 8.7 96.0 1022.4 3.2 NNW 4.8 0.0
10:35 8.8 96.0 1022.5 1.6 NNE 4.8 0.0
10:40 8.8 96.0 1022.3 1.6 NE 6.4 0.0
10:45 8.8 96.0 1022.4 0.0 NE 6.4 0.0
10:50 9.0 96.0 1022.3 3.2 NE 4.8 0.0
10:55 9.1 96.0 1022.2 0.0 NE 4.8 0.0
11:00 9.3 96.0 1022.1 3.2 NE 6.4 0.0
11:05 9.5 96.0 1022.0 0.0 NE 6.4 0.0
11:10 9.7 96.0 1022.0 0.0 NE 8.0 0.0
11:15 9.7 96.0 1021.9 4.8 NE 8.0 0.0
11:20 9.9 96.0 1021.9 4.8 NE 6.4 0.0
11:25 10.4 96.0 1021.8 0.0 NNE 8.0 0.0
11:30 10.6 96.0 1021.7 1.6 WNW 6.4 0.0
11:35 10.9 96.0 1021.6 0.0 WNW 6.4 0.0
11:40 11.2 96.0 1021.6 3.2 WNW 6.4 0.0
11:45 11.8 94.0 1021.6 3.2 NE 6.4 0.0
11:50 12.1 91.0 1021.5 0.0 NE 6.4 0.0
11:55 12.4 90.0 1021.3 0.0 W 6.4 0.0
12:00 12.9 89.0 1021.2 1.6 N 8.0 0.0
12:05 13.4 87.0 1021.1 3.2 NE 8.0 0.0
12:10 13.4 85.0 1021.1 0.0 NE 8.0 0.0
12:15 13.9 83.0 1021.1 3.2 N 8.0 0.0
12:20 14.2 82.0 1020.9 4.8 NNE 8.0 0.0
12:25 14.6 79.0 1020.9 0.0 N 8.0 0.0
12:30 15.1 78.0 1020.9 3.2 N 8.0 0.0
12:35 15.5 74.0 1020.8 4.8 WNW 12.9 0.0
12:40 15.6 72.0 1020.7 0.0 WNW 12.9 0.0
12:45 15.8 70.0 1020.6 1.6 WNW 6.4 0.0
12:50 15.9 72.0 1020.5 1.6 NNE 6.4 0.0
12:55 16.2 68.0 1020.4 1.6 N 6.4 0.0
13:00 16.2 71.0 1020.3 6.4 ENE 9.7 0.0
13:05 16.2 69.0 1020.3 1.6 NNE 14.5 0.0
13:10 16.3 69.0 1020.3 0.0 NW 14.5 0.0
13:15 16.5 70.0 1020.1 4.8 NNE 9.7 0.0
13:20 16.7 67.0 1020.1 6.4 NNE 9.7 0.0
13:25 16.6 67.0 1019.9 0.0 NNW 9.7 0.0
13:30 16.6 67.0 1019.9 6.4 N 12.9 0.0
13:35 16.8 66.0 1019.9 6.4 N 12.9 0.0
13:40 17.1 68.0 1019.9 4.8 NE 11.3 0.0
13:45 17.2 66.0 1019.8 6.4 NE 11.3 0.0
13:50 17.2 64.0 1019.7 3.2 N 9.7 0.0
13:55 17.3 63.0 1019.7 0.0 NW 9.7 0.0
14:00 17.4 65.0 1019.7 4.8 NE 6.4 0.0
14:05 17.4 64.0 1019.7 6.4 WNW 8.0 0.0
14:10 17.1 63.0 1019.8 3.2 NW 8.0 0.0
14:15 17.0 64.0 1019.7 1.6 NW 8.0 0.0
14:20 16.9 66.0 1019.6 4.8 NNE 8.0 0.0
14:25 17.0 65.0 1019.6 3.2 N 8.0 0.0
14:30 17.1 65.0 1019.6 3.2 E 12.9 0.0
14:35 17.1 64.0 1019.5 0.0 ENE 12.9 0.0
14:40 17.1 63.0 1019.5 3.2 W 8.0 0.0
14:45 17.1 64.0 1019.3 11.3 W 16.1 0.0
14:50 17.2 63.0 1019.3 1.6 W 14.5 0.0
14:55 17.2 63.0 1019.3 3.2 W 8.0 0.0
15:00 17.3 65.0 1019.3 3.2 SSW 19.3 0.0
15:05 17.2 64.0 1019.3 4.8 WNW 19.3 0.0
15:10 17.1 64.0 1019.3 0.0 S 8.0 0.0
15:15 17.0 64.0 1019.3 3.2 NNW 11.3 0.0
15:20 17.0 65.0 1019.1 1.6 SE 12.9 0.0
15:25 16.8 65.0 1019.2 0.0 SSW 12.9 0.0
15:30 16.7 66.0 1019.2 3.2 SE 14.5 0.0
15:35 16.7 66.0 1019.1 11.3 SSE 16.1 0.0
15:40 16.4 66.0 1019.2 3.2 S 16.1 0.0
15:45 16.4 67.0 1019.2 4.8 S 14.5 0.0
15:50 16.3 69.0 1019.3 1.6 SE 11.3 0.0
15:55 16.1 67.0 1019.2 8.0 SSE 11.3 0.0
16:00 15.9 69.0 1019.3 1.6 W 11.3 0.0
16:05 15.9 70.0 1019.4 4.8 SSE 8.0 0.0
16:10 15.7 71.0 1019.3 3.2 ENE 9.7 0.0
16:15 15.4 72.0 1019.4 3.2 SE 8.0 0.0
16:20 15.4 73.0 1019.3 1.6 SE 9.7 0.0
16:25 15.1 73.0 1019.3 4.8 ESE 14.5 0.0
16:30 14.9 74.0 1019.3 1.6 ESE 14.5 0.0
16:35 14.9 73.0 1019.4 3.2 S 12.9 0.0
16:40 14.7 73.0 1019.3 3.2 S 11.3 0.0
16:45 14.5 74.0 1019.4 3.2 S 11.3 0.0
16:50 14.4 74.0 1019.4 3.2 SSE 9.7 0.0
16:55 14.3 75.0 1019.6 0.0 SSE 8.0 0.0
17:00 14.3 75.0 1019.5 3.2 SSE 8.0 0.0
17:05 14.1 75.0 1019.7 0.0 SSE 9.7 0.0
17:10 14.1 75.0 1019.7 0.0 SSE 4.8 0.0
17:15 14.0 75.0 1019.7 3.2 SSE 6.4 0.0
17:20 13.9 75.0 1019.8 3.2 S 4.8 0.0
17:25 13.8 76.0 1019.8 1.6 SSW 8.0 0.0
17:30 13.8 76.0 1019.8 4.8 SSE 8.0 0.0
17:35 13.7 78.0 1019.9 3.2 SSE 6.4 0.0
17:40 13.4 77.0 1020.1 1.6 S 4.8 0.0
17:45 13.3 78.0 1020.1 3.2 S 4.8 0.0
17:50 13.0 77.0 1020.1 8.0 S 9.7 0.0
17:55 12.7 78.0 1020.3 4.8 SSW 9.7 0.0
18:00 12.4 79.0 1020.3 3.2 SSW 8.0 0.0
18:05 12.2 80.0 1020.4 3.2 SSW 6.4 0.0
18:10 12.1 80.0 1020.4 1.6 NE 6.4 0.0
18:15 11.9 81.0 1020.5 3.2 ESE 4.8 0.0
18:20 11.7 81.0 1020.5 3.2 SE 4.8 0.0
18:25 11.6 81.0 1020.6 3.2 SW 6.4 0.0
18:30 11.4 82.0 1020.6 0.0 SW 6.4 0.0
Màxima 17.5 96.0 1023.6 11.3 SSE 19.3 0.0
Mínima 6.0 63.0 1019.1
Total 0.0